Wind_Speed
33 33 34 25 32 31 24 25 21 19 20 20 20 21 20 23 22 21 18 17 19 19 20 22 21 22 26 29 24 22 19 13 13 18 21 25 22 21 18 15 16 25 40 37
31 33 33 35 30 33 31 27 28 28 31 27 24 22 22 26 25 24 22 21 22 25 27 28 27 31 32 28 25 26 25 21 18 20 28 33 23 22 25 21 13 25 34 37
28 33 34 35 35 36 30 31 27 26 30 32 29 26 23 26 28 29 28 27 26 29 30 32 34 33 24 22 19 23 25 24 22 23 30 35 24 19 22 22 13 14 33 39
28 31 35 37 38 37 42 39 33 32 29 32 32 30 25 26 28 31 32 36 33 36 38 37 37 29 22 21 28 29 24 24 21 27 33 34 26 18 19 21 16 12 26 37
29 32 31 39 39 38 38 44 46 45 40 39 40 38 38 38 36 38 39 40 43 43 48 46 40 37 40 36 36 35 29 27 33 37 38 32 24 19 14 16 17 13 14 35
34 34 36 39 35 39 40 44 45 46 49 51 47 48 46 47 46 46 47 46 45 48 48 49 47 44 42 38 32 32 29 29 31 36 30 27 22 18 12 9 12 12 9 25
38 36 37 38 38 38 39 42 43 44 47 49 50 52 55 53 51 49 47 48 50 51 51 49 41 35 33 33 20 22 25 30 31 31 29 26 20 17 14 10 11 14 11 9
44 40 43 44 42 39 39 40 43 41 43 45 46 49 52 53 51 50 50 53 54 50 40 34 33 30 29 23 22 27 28 36 33 24 25 21 17 17 15 14 14 16 15 12
46 47 46 46 44 41 42 43 46 43 43 42 44 49 50 46 45 45 43 45 43 40 40 36 34 31 25 28 32 36 32 28 20 19 21 22 20 19 18 17 17 17 18 21
49 50 50 51 48 45 47 47 48 49 49 48 46 46 42 40 37 37 40 38 42 39 41 38 37 35 32 32 35 32 29 26 17 14 18 20 23 23 21 20 19 17 21 26
52 51 54 54 51 54 50 51 52 52 52 52 52 50 47 40 37 37 39 41 44 43 44 43 39 35 36 35 41 35 34 34 35 33 31 23 21 24 24 25 26 20 21 27
57 54 56 56 56 55 52 52 53 52 53 52 53 50 47 40 41 42 36 41 42 43 43 41 43 43 38 37 38 39 43 32 27 30 30 29 22 25 24 24 23 19 21 26
51 48 53 52 51 50 50 50 51 50 48 49 45 45 44 38 39 41 38 41 42 43 40 44 43 41 42 43 36 39 30 25 24 21 25 26 24 24 29 25 23 18 20 26
49 47 48 48 52 52 48 47 49 47 48 48 44 43 42 38 37 39 39 41 41 40 43 50 53 51 44 39 34 25 24 32 21 25 22 23 24 24 29 28 19 20 19 26
47 45 47 49 49 45 42 44 43 43 44 41 41 38 39 35 30 38 37 38 40 45 48 51 55 54 51 41 38 34 30 26 22 24 24 21 22 25 25 23 17 18 20 24
42 42 43 46 46 43 41 42 41 40 36 33 33 34 33 32 31 37 40 44 40 39 45 53 57 56 45 43 42 33 27 25 24 21 23 23 22 25 24 24 20 17 12 17
45 45 46 48 45 44 39 37 37 39 37 32 30 33 27 26 29 33 36 48 53 51 50 55 57 52 51 46 44 28 22 27 29 24 23 25 24 25 26 27 24 20 14 12
49 47 51 52 47 45 41 36 37 36 35 34 34 36 31 30 36 36 36 38 42 45 51 59 60 59 55 47 38 36 35 33 37 33 27 26 27 27 26 26 30 23 16 10
51 52 55 53 50 45 42 39 36 33 31 33 35 38 36 38 34 34 38 40 40 40 42 43 47 47 43 42 42 45 41 35 38 37 28 27 25 28 29 28 31 24 18 13
56 56 57 58 54 48 43 42 36 34 32 32 35 36 37 38 38 40 40 40 43 41 40 41 42 42 46 46 49 46 39 34 35 36 27 26 26 28 30 27 31 27 26 20
58 59 58 59 56 51 48 44 41 38 36 36 36 34 37 37 40 37 37 38 39 40 43 44 45 46 45 46 47 46 43 41 35 33 27 26 25 27 31 31 31 33 31 27
59 59 57 56 55 52 49 47 43 44 42 40 41 38 34 43 43 40 40 41 39 38 41 42 44 47 48 46 49 47 44 38 34 31 26 25 25 27 30 29 29 30 30 28
59 59 55 53 53 54 46 44 45 44 42 43 42 43 45 48 47 44 46 44 43 45 46 45 42 42 43 42 41 38 35 32 31 31 26 25 27 27 27 27 25 26 28 31
57 52 49 51 50 50 48 46 45 47 47 47 47 48 49 50 47 42 40 39 39 44 44 38 37 37 35 36 36 37 32 33 32 33 29 28 31 29 29 26 18 21 26 29
52 46 42 42 45 47 48 48 47 49 50 49 49 50 50 47 45 43 36 34 38 43 42 37 35 34 32 32 31 33 33 33 36 35 35 32 36 34 27 23 17 13 20 25
50 45 42 40 42 47 47 46 47 47 47 51 53 46 44 42 39 38 41 40 39 41 42 37 33 32 34 33 33 35 35 33 35 38 41 39 41 38 39 35 38 39 52 42
Wind_Direction
231 236 224 230 231 233 234 242 235 236 237 238 243 249 256 251 250 255 263 281 288 289 295 305 308 312 305 302 298 309 319 316 329 341 337 342 327 322 329 309 261 229 221 226
237 240 238 230 229 243 244 241 242 247 242 248 241 243 249 256 256 257 262 270 287 298 301 301 300 298 301 292 289 290 301 299 301 311 331 336 330 319 325 332 295 229 221 223
236 242 245 242 235 229 235 236 233 238 243 244 247 251 243 251 259 254 253 263 279 289 289 292 294 296 303 291 293 292 300 287 289 310 319 322 322 316 322 335 317 259 224 219
239 236 242 245 244 236 236 230 235 238 242 243 249 249 249 254 257 262 271 281 281 288 289 288 295 292 288 278 292 302 310 303 286 303 312 309 308 309 317 327 340 322 229 217
240 242 238 243 243 244 240 243 236 240 241 245 246 247 250 250 254 263 273 281 289 289 291 295 299 293 301 298 290 293 299 302 297 303 304 297 295 298 305 320 331 338 256 221
242 242 244 245 241 244 243 243 243 242 242 246 250 254 256 259 260 262 268 278 279 280 283 289 292 292 295 297 289 292 300 298 297 304 303 298 289 281 283 315 344 343 334 228
251 248 250 250 245 245 247 246 246 247 248 249 249 252 256 257 261 265 266 268 273 275 279 285 286 294 295 291 296 300 302 294 296 297 299 293 280 272 267 284 316 332 341 297
254 250 249 249 250 250 252 254 255 248 249 254 255 257 258 260 264 266 268 269 271 274 273 268 278 279 280 273 301 292 297 305 296 287 299 290 262 259 268 273 286 309 326 326
251 256 253 253 252 251 251 254 256 260 257 251 253 254 256 260 265 270 272 269 271 268 269 259 275 272 274 276 293 294 285 299 287 295 295 299 261 248 260 271 280 300 318 324
252 254 257 256 256 254 254 250 253 256 257 262 261 260 264 266 264 264 267 267 264 262 266 269 270 264 276 274 301 297 293 290 267 290 298 306 261 252 257 267 273 286 305 315
250 252 256 256 258 256 254 256 254 254 257 258 260 265 269 266 267 263 262 262 262 259 261 268 268 269 283 294 292 290 290 288 268 280 285 284 273 251 261 265 274 274 299 315
246 247 252 255 255 257 259 259 258 257 254 256 258 261 264 265 263 263 265 261 260 261 257 259 265 267 283 294 294 297 291 289 279 272 272 271 264 249 258 258 276 275 304 318
249 248 250 253 256 257 255 255 257 258 259 258 259 261 262 263 261 265 263 258 261 263 254 247 257 267 272 280 286 296 304 300 284 272 273 259 248 250 248 252 268 283 312 321
249 249 251 250 253 252 255 257 257 260 262 261 263 263 264 264 263 261 263 258 254 250 250 250 256 264 272 279 296 292 297 305 290 275 277 258 245 245 243 250 257 272 307 319
244 244 246 250 251 254 254 254 258 259 262 265 266 265 263 259 255 255 250 240 242 251 248 249 256 264 270 278 294 297 290 297 282 292 269 256 246 242 247 243 240 279 303 323
240 242 245 249 251 253 253 254 256 259 262 265 265 265 262 259 252 247 245 235 235 244 256 261 265 272 274 286 293 296 287 296 293 294 271 256 242 242 238 227 226 259 291 306
243 245 245 247 249 251 250 252 255 256 258 260 259 258 250 245 242 240 237 234 237 240 250 261 267 273 280 286 293 289 305 313 304 298 278 256 243 238 234 222 218 238 257 280
245 244 245 246 247 250 251 248 253 257 257 255 254 255 251 248 247 248 250 248 248 251 253 255 260 266 272 277 275 279 292 303 308 294 283 257 243 238 232 223 217 232 240 261
240 242 248 249 249 250 253 254 254 257 257 256 253 253 250 252 249 248 252 255 254 252 254 255 257 264 269 273 277 279 278 293 298 285 280 261 247 239 232 231 224 228 234 237
237 240 246 252 254 253 253 254 254 253 253 251 251 251 251 251 251 248 247 252 256 261 262 265 267 268 270 272 273 275 282 288 286 276 276 261 246 238 233 231 228 236 245 236
241 241 242 248 251 253 255 254 254 251 247 246 246 245 252 253 250 252 255 256 252 254 258 263 268 268 269 268 271 276 281 279 270 264 268 256 238 234 229 226 224 233 238 246
237 240 242 246 251 253 254 255 257 257 255 252 249 242 243 252 251 247 253 254 251 253 257 259 264 268 271 273 273 275 275 271 258 252 258 251 236 228 228 227 227 231 240 248
236 239 241 244 246 250 252 252 253 253 253 251 248 247 243 245 247 242 248 248 253 258 258 259 258 260 260 261 262 262 260 256 247 246 246 237 230 225 222 223 230 240 252 259
238 238 240 244 247 248 248 246 245 247 246 247 248 245 246 247 252 252 254 256 257 256 255 257 259 257 258 258 256 258 251 247 240 239 238 230 223 216 210 211 221 255 258 266
234 236 235 236 240 241 242 243 242 241 244 245 247 249 252 255 255 258 256 255 253 257 261 258 256 256 255 256 255 256 253 241 235 234 233 226 217 213 193 188 183 248 269 269
232 227 226 227 232 236 237 240 242 245 246 249 248 250 253 256 259 263 266 252 251 253 255 252 252 254 257 256 257 260 261 253 239 231 229 228 217 208 191 196 203 209 231 245
Height
10999 11001 11006 11007 11008 11011 11014 11015 11018 11018 11017 11018 11019 11018 11020 11021 11021 11024 11028 11029 11029 11030 11031 11030 11028 11026 11024 11023 11022 11021 11020 11018 11016 11014 11012 11010 11006 11004 11002 11000 10999 11001 11004 11009
10994 10995 10998 11001 11004 11005 11009 11011 11013 11013 11014 11015 11016 11018 11018 11017 11019 11022 11025 11025 11023 11022 11021 11023 11024 11023 11021 11018 11016 11016 11015 11013 11012 11010 11008 11006 11003 11000 10997 10995 10993 10993 10996 11001
10991 10992 10991 10994 10998 11000 11003 11007 11008 11009 11010 11012 11012 11013 11015 11015 11017 11017 11019 11021 11023 11021 11020 11019 11018 11019 11018 11013 11013 11012 11009 11007 11007 11006 11004 11002 11001 10998 10995 10992 10988 10987 10990 10994
10985 10986 10987 10987 10989 10995 10995 11001 11003 11005 11008 11008 11008 11009 11010 11013 11014 11013 11012 11013 11015 11014 11014 11016 11016 11015 11014 11010 11008 11008 11005 11003 11002 11001 11000 10997 10996 10995 10993 10989 10987 10984 10985 10989
10981 10979 10982 10979 10984 10987 10990 10990 10997 10998 11001 11003 11004 11006 11006 11009 11010 11010 11009 11009 11006 11006 11004 11005 11008 11008 11008 11007 11003 11002 11002 11001 10998 10994 10992 10991 10990 10990 10989 10987 10984 10982 10981 10985
10972 10973 10973 10972 10980 10980 10983 10982 10985 10990 10994 10994 10998 10999 11002 11002 11006 11006 11005 11005 11003 11001 10999 10998 10999 10999 11000 11000 10996 10994 10994 10994 10992 10989 10985 10984 10984 10986 10986 10984 10982 10980 10979 10979
10962 10967 10966 10967 10970 10973 10974 10975 10979 10983 10984 10987 10991 10992 10992 10996 10998 10999 11002 11003 10999 10996 10996 10993 10993 10992 10992 10993 10990 10989 10989 10988 10986 10983 10980 10979 10979 10980 10981 10980 10979 10978 10976 10975
10950 10957 10955 10956 10960 10967 10969 10970 10968 10975 10979 10980 10982 10983 10984 10986 10991 10992 10993 10992 10988 10987 10990 10987 10988 10987 10987 10987 10986 10986 10986 10983 10980 10979 10977 10975 10975 10976 10976 10975 10975 10975 10973 10972
10941 10941 10946 10948 10953 10959 10961 10962 10960 10965 10967 10971 10972 10972 10975 10981 10984 10983 10983 10981 10980 10978 10980 10983 10983 10980 10980 10982 10981 10980 10981 10979 10976 10975 10974 10972 10971 10972 10972 10972 10972 10971 10969 10968
10933 10932 10936 10937 10943 10949 10949 10953 10954 10956 10957 10959 10963 10965 10970 10972 10976 10976 10974 10974 10971 10972 10970 10973 10975 10975 10974 10975 10975 10973 10974 10975 10971 10970 10970 10969 10968 10968 10969 10968 10968 10967 10965 10963
10922 10925 10924 10927 10933 10932 10939 10942 10944 10946 10948 10950 10952 10955 10958 10963 10966 10966 10966 10966 10963 10966 10967 10964 10966 10965 10966 10967 10967 10967 10966 10966 10965 10963 10962 10962 10963 10965 10965 10965 10964 10964 10963 10958
10907 10914 10915 10916 10918 10922 10928 10930 10931 10934 10935 10940 10943 10948 10950 10955 10955 10953 10961 10957 10956 10955 10957 10957 10957 10960 10961 10960 10960 10960 10958 10955 10954 10953 10953 10954 10956 10959 10961 10960 10959 10959 10957 10953
10897 10906 10903 10907 10909 10912 10915 10917 10919 10923 10926 10929 10936 10939 10940 10945 10944 10944 10948 10947 10947 10946 10949 10950 10951 10952 10954 10955 10955 10953 10950 10947 10946 10945 10945 10946 10948 10951 10954 10954 10953 10953 10951 10948
10886 10891 10894 10897 10895 10897 10904 10909 10909 10914 10916 10919 10927 10930 10932 10936 10937 10936 10937 10938 10940 10938 10939 10942 10943 10942 10943 10948 10950 10947 10943 10941 10940 10939 10939 10939 10940 10942 10944 10946 10948 10948 10946 10944
10877 10881 10882 10882 10885 10890 10895 10897 10901 10904 10906 10914 10917 10921 10922 10925 10929 10924 10927 10928 10928 10928 10929 10929 10930 10932 10936 10942 10940 10939 10937 10934 10933 10932 10931 10931 10933 10935 10937 10940 10942 10942 10944 10943
10868 10870 10872 10871 10875 10881 10885 10890 10894 10897 10901 10906 10908 10909 10911 10913 10916 10915 10915 10919 10921 10923 10921 10920 10921 10924 10929 10930 10929 10929 10926 10922 10920 10922 10923 10923 10925 10927 10930 10933 10936 10938 10941 10943
10858 10860 10861 10860 10866 10869 10875 10880 10884 10888 10893 10899 10901 10897 10901 10903 10905 10903 10907 10909 10911 10914 10915 10914 10914 10915 10915 10915 10919 10921 10918 10915 10912 10913 10915 10915 10917 10919 10923 10925 10931 10935 10934 10933
10844 10847 10846 10847 10855 10860 10866 10873 10875 10879 10884 10890 10891 10887 10893 10895 10894 10896 10899 10901 10903 10905 10907 10906 10905 10906 10907 10909 10911 10912 10910 10907 10906 10906 10906 10907 10908 10910 10914 10918 10923 10927 10926 10926
10833 10835 10834 10837 10844 10852 10858 10865 10869 10873 10876 10879 10880 10879 10882 10883 10888 10888 10888 10890 10893 10894 10894 10895 10896 10897 10898 10899 10901 10901 10902 10900 10900 10899 10899 10898 10900 10903 10907 10910 10914 10920 10920 10921
10821 10824 10825 10825 10833 10844 10851 10853 10859 10863 10867 10869 10869 10869 10869 10872 10874 10876 10877 10878 10879 10881 10882 10882 10885 10887 10887 10888 10890 10890 10890 10891 10892 10890 10891 10891 10893 10897 10901 10906 10907 10913 10914 10916
10809 10811 10817 10816 10824 10832 10838 10843 10847 10851 10855 10857 10858 10859 10859 10863 10865 10867 10868 10870 10871 10871 10870 10870 10872 10874 10875 10877 10876 10875 10877 10880 10881 10882 10882 10882 10884 10887 10891 10897 10902 10905 10908 10909
10794 10799 10806 10809 10814 10822 10829 10833 10836 10836 10842 10846 10848 10852 10857 10856 10854 10858 10860 10860 10861 10862 10861 10861 10863 10863 10863 10863 10861 10862 10865 10868 10871 10872 10873 10873 10876 10878 10882 10890 10896 10899 10901 10904
10780 10788 10798 10803 10805 10806 10817 10820 10820 10821 10825 10829 10835 10838 10842 10842 10842 10842 10844 10848 10849 10849 10850 10851 10852 10853 10852 10853 10851 10854 10856 10857 10859 10861 10863 10864 10866 10871 10875 10882 10891 10894 10898 10901
10769 10780 10789 10792 10794 10795 10798 10802 10804 10805 10807 10812 10816 10819 10822 10824 10830 10834 10838 10839 10839 10838 10838 10838 10839 10842 10841 10841 10842 10842 10847 10846 10849 10850 10853 10856 10858 10861 10866 10872 10886 10895 10896 10898
10759 10768 10775 10778 10779 10780 10781 10785 10788 10792 10794 10797 10800 10804 10812 10817 10820 10823 10826 10826 10824 10824 10825 10827 10827 10828 10829 10830 10832 10832 10834 10836 10838 10841 10843 10844 10847 10849 10857 10864 10868 10881 10887 10886
10749 10756 10760 10763 10763 10765 10768 10772 10775 10780 10786 10788 10791 10798 10799 10803 10807 10810 10812 10812 10813 10811 10813 10815 10816 10817 10818 10819 10820 10821 10822 10823 10826 10830 10831 10832 10835 10840 10842 10845 10845 10851 10856 10856